EUTELSAT 3B

Last updated on Thu Oct 30 2025 00:02:49 GMT+0000 (Coordinated Universal Time)

1 39773U 14030A 25302.32885697 .00000030 00000+0 00000+0 0 9998 2 39773 0.0697 19.8410 0004469 189.0478 310.5245 1.00270662 41757
UTC large
Height (km)
Speed (km/s)
/
Latitude / Longitude
Inclination (degrees)
Orbital Period (minutes)
Azimuth
Elevation
Range (km)
Doppler Factor

Next 0 passes for location: London (51.5072 / 0.1276)

Sorry there are no passes over London.